Curacao Island, Netherlands

7:24 AM AST on February 21, 2017 (GMT -0400)
Willemstad-Hato International

Weather History for TNCC - December, 2012

Change the Weather History Date:

Wednesday, December 19, 2012

  Actual Average Record
Temperature  
Mean Temperature 78 °F -  
Max Temperature 84 °F 84 °F 87 °F (1996)
Min Temperature 73 °F 77 °F 73 °F (2012)
Cooling Degree Days 14    
Growing Degree Days 28 (Base 50)    
Moisture  
Dew Point 72 °F    
Average Humidity 78    
Maximum Humidity 89    
Minimum Humidity 61    
Precipitation  
Precipitation 0.00 in - - ()
Sea Level Pressure  
Sea Level Pressure 29.87 in    
Wind  
Wind Speed 10 mph ()    
Max Wind Speed 15 mph    
Max Gust Speed -    
Visibility 6.2 miles    
Events      
Averages and records for this station are not official NWS values.
T = Trace of Precipitation, MM = Missing Value Source: Averaged Metar Reports

Daily Weather History Graph

Daily Weather History Graph

Search for Another Location

Airport or City:

Trip Planner

Search our weather history database for the weather conditions in past years. The results will help you decide how hot, cold, wet, or windy it might be!

Date:

Astronomy

Dec. 19, 2012 Rise Set
Actual Time 6:50 AM AST 6:15 PM AST
Civil Twilight 6:27 AM AST 6:38 PM AST
Nautical Twilight 6:01 AM AST 7:05 PM AST
Astronomical Twilight 5:35 AM AST 7:31 PM AST
Moon 12:03 PM AST (12/19) No Moon Set
Length of Visible Light 12h 10m
Length of Day
11h 24m
Waxing Crescent, 44% of the Moon is Illuminated
Dec 19
Waxing Crescent
Dec 20
First Quarter
Dec 28
Full
Jan 4
Last Quarter
Jan 11
New

Hourly Weather History & Observations

Time (AST) Temp. Heat Index Dew Point Humidity Pressure Visibility Wind Dir Wind Speed Gust Speed Precip Events Conditions
12:00 AM 75.2 °F - 71.6 °F 89% 29.89 in 6.2 mi East 11.5 mph - N/A   Partly Cloudy
1:00 AM 77.0 °F - 71.6 °F 83% 29.89 in 6.2 mi ESE 9.2 mph - N/A   Partly Cloudy
2:00 AM 76 °F - 70 °F 75% 29.88 in 25 mi ESE 10.4 mph - -   Scattered Clouds
2:00 AM 77.0 °F - 69.8 °F 78% 29.86 in 6.2 mi ESE 10.4 mph - N/A   Partly Cloudy
3:00 AM 77.0 °F - 69.8 °F 78% 29.86 in 6.2 mi East 13.8 mph - N/A   Partly Cloudy
4:00 AM 75.2 °F - 71.6 °F 89% 29.86 in 6.2 mi SE 9.2 mph - N/A   Partly Cloudy
5:00 AM 76 °F - 72 °F 85% 29.86 in 25 mi ESE 9.2 mph - -   Scattered Clouds
5:00 AM 77.0 °F - 71.6 °F 83% 29.86 in 6.2 mi ESE 9.2 mph - N/A   Partly Cloudy
6:00 AM 75.2 °F - 71.6 °F 89% 29.86 in 6.2 mi ESE 6.9 mph - N/A   Partly Cloudy
7:00 AM 75.2 °F - 71.6 °F 89% 29.86 in 6.2 mi SE 8.1 mph - N/A   Partly Cloudy
8:00 AM 79 °F - 72 °F 75% 29.89 in 25 mi SE 6.9 mph - -   Scattered Clouds
8:00 AM 78.8 °F - 71.6 °F 78% 29.89 in 6.2 mi SE 6.9 mph - N/A   Partly Cloudy
9:00 AM 80.6 °F 84.6 °F 71.6 °F 74% 29.89 in 6.2 mi ESE 11.5 mph - N/A   Scattered Clouds
10:00 AM 82.4 °F 88.2 °F 73.4 °F 74% 29.89 in 6.2 mi East 11.5 mph - N/A   Scattered Clouds
11:00 AM 83 °F - 72 °F 61% 29.91 in 25 mi East 12.7 mph - -   Partly Cloudy
11:00 AM 82.4 °F 87.2 °F 71.6 °F 70% 29.92 in 6.2 mi East 12.7 mph - N/A   Scattered Clouds
12:00 PM 82.4 °F 87.2 °F 71.6 °F 70% 29.89 in 6.2 mi East 12.7 mph - N/A   Scattered Clouds
1:00 PM 84.2 °F 89.6 °F 71.6 °F 66% 29.89 in 6.2 mi East 12.7 mph - N/A   Scattered Clouds
2:00 PM 84.2 °F 89.6 °F 71.6 °F 66% 29.86 in 6.2 mi East 12.7 mph - N/A   Scattered Clouds
3:00 PM 82.4 °F 87.2 °F 71.6 °F 70% 29.83 in 6.2 mi East 10.4 mph - N/A   Scattered Clouds
4:00 PM 82.4 °F 88.2 °F 73.4 °F 74% 29.83 in 6.2 mi East 11.5 mph - N/A   Scattered Clouds
5:00 PM 80.6 °F 84.6 °F 71.6 °F 74% 29.83 in 6.2 mi East 10.4 mph - N/A   Scattered Clouds
6:00 PM 80.6 °F 85.4 °F 73.4 °F 79% 29.83 in 6.2 mi East 6.9 mph - N/A   Scattered Clouds
7:00 PM 77.0 °F - 71.6 °F 83% 29.83 in 6.2 mi East 11.5 mph - N/A   Scattered Clouds
8:00 PM 77.0 °F - 73.4 °F 89% 29.86 in 6.2 mi East 11.5 mph - N/A   Scattered Clouds
9:00 PM 77.0 °F - 73.4 °F 89% 29.86 in 6.2 mi East 12.7 mph - N/A   Partly Cloudy
10:00 PM 78.8 °F - 71.6 °F 78% 29.89 in 6.2 mi East 15.0 mph - N/A   Partly Cloudy
11:00 PM 78 °F - 70 °F 71% 29.91 in 25 mi East 15.0 mph - -   Partly Cloudy
11:00 PM 78.8 °F - 71.6 °F 78% 29.89 in 6.2 mi East 15.0 mph - N/A   Partly Cloudy